RPC3327 RPVP-RPLL

Flight info

Callsign RPC3327
Flight time 1h 5m
Altitude 41000
Route DABOY3W DABOY W281 LEGED N884 LUBAN LUBAN7R
Aircraft C25C/M-SDE2E3FGHRWXY/LB1

Departure

Time 2026-04-26 14:19
Airport Puerto Princesa International Airport / PAF Antonio Bautista Air Base (RPVP)

Arrival

Time 2026-04-26 15:25
Airport Ninoy Aquino International Airport (RPLL)
Time Latitude Longitude Altitude Speed Heading
2026-04-26 14:08 9.74497 118.75154 75 ft 0 kts
2026-04-26 14:16 9.74507 118.75149 72 ft 2 kts 263°
2026-04-26 14:17 9.74423 118.75086 71 ft 24 kts 236°
2026-04-26 14:17 9.74421 118.74921 75 ft 22 kts 272°
2026-04-26 14:17 9.74426 118.74799 75 ft 0 kts 272°
2026-04-26 14:18 9.74426 118.74797 75 ft 3 kts 272°
2026-04-26 14:18 9.74385 118.74712 75 ft 17 kts 198°
2026-04-26 14:18 9.74309 118.74709 74 ft 8 kts 191°
2026-04-26 14:19 9.74264 118.74741 74 ft 8 kts 90°
2026-04-26 14:19 9.74262 118.74805 74 ft 17 kts 92°
2026-04-26 14:19 9.74242 118.75265 85 ft 120 kts 91°
2026-04-26 14:19 9.74183 118.76283 815 ft 160 kts 92°
2026-04-26 14:20 9.74095 118.77568 1933 ft 200 kts 93°
2026-04-26 14:20 9.73983 118.79153 2642 ft 247 kts 92°
2026-04-26 14:20 9.73865 118.80937 3635 ft 228 kts 93°
2026-04-26 14:20 9.73795 118.82376 5244 ft 204 kts 90°
2026-04-26 14:21 9.73972 118.83853 5544 ft 231 kts 70°
2026-04-26 14:21 9.75051 118.85115 6602 ft 236 kts 28°
2026-04-26 14:21 9.76627 118.85586 8006 ft 243 kts
2026-04-26 14:21 9.78352 118.85398 9091 ft 254 kts 350°
2026-04-26 14:22 9.80090 118.84991 10234 ft 258 kts 349°
2026-04-26 14:22 9.81865 118.84624 11282 ft 263 kts 351°
2026-04-26 14:22 9.83688 118.84298 12304 ft 269 kts 352°
2026-04-26 14:22 9.85550 118.83967 13304 ft 274 kts 351°
2026-04-26 14:23 9.87418 118.83619 14198 ft 279 kts 351°
2026-04-26 14:23 9.89345 118.83281 15059 ft 283 kts 355°
2026-04-26 14:23 9.91327 118.83225 15925 ft 286 kts 360°
2026-04-26 14:23 9.93331 118.83161 16782 ft 291 kts 359°
2026-04-26 14:24 9.95399 118.83091 17646 ft 295 kts 359°
2026-04-26 14:24 9.97439 118.83029 18435 ft 300 kts 359°
2026-04-26 14:24 9.99536 118.82970 19169 ft 303 kts 359°
2026-04-26 14:24 10.01687 118.82908 19900 ft 307 kts 360°
2026-04-26 14:25 10.03839 118.82842 20620 ft 311 kts 359°
2026-04-26 14:25 10.05983 118.82778 21327 ft 314 kts 359°
2026-04-26 14:25 10.08186 118.82712 22028 ft 318 kts 359°
2026-04-26 14:25 10.10410 118.82646 22726 ft 322 kts 359°
2026-04-26 14:26 10.12660 118.82579 23419 ft 325 kts 358°
2026-04-26 14:26 10.14940 118.82511 23986 ft 329 kts 358°
2026-04-26 14:26 10.17244 118.82442 24541 ft 333 kts 358°
2026-04-26 14:26 10.19575 118.82374 25097 ft 338 kts 358°
2026-04-26 14:27 10.21945 118.82301 25657 ft 342 kts 358°
2026-04-26 14:27 10.24339 118.82231 26210 ft 346 kts 358°
2026-04-26 14:27 10.26732 118.82160 26748 ft 350 kts 358°
2026-04-26 14:27 10.29180 118.82086 27284 ft 354 kts 358°
2026-04-26 14:28 10.31661 118.82014 27839 ft 357 kts 358°
2026-04-26 14:28 10.34149 118.81939 28489 ft 357 kts 358°
2026-04-26 14:28 10.36639 118.81863 29176 ft 356 kts 358°
2026-04-26 14:28 10.39124 118.81790 29864 ft 356 kts 358°
2026-04-26 14:29 10.41597 118.81771 30446 ft 356 kts
2026-04-26 14:29 10.44062 118.81966 31018 ft 355 kts
2026-04-26 14:29 10.46498 118.82133 31577 ft 355 kts
2026-04-26 14:29 10.48961 118.82294 32152 ft 354 kts
2026-04-26 14:30 10.51430 118.82468 32704 ft 355 kts
2026-04-26 14:30 10.53891 118.82644 33271 ft 354 kts
2026-04-26 14:30 10.56353 118.82817 33836 ft 354 kts
2026-04-26 14:30 10.58811 118.82989 34336 ft 354 kts
2026-04-26 14:31 10.61265 118.83160 34866 ft 352 kts
2026-04-26 14:31 10.63703 118.83331 35413 ft 350 kts
2026-04-26 14:31 10.66125 118.83503 35957 ft 348 kts
2026-04-26 14:31 10.68540 118.83671 36505 ft 346 kts
2026-04-26 14:32 10.70913 118.83837 37046 ft 345 kts
2026-04-26 14:32 10.73302 118.84006 37580 ft 343 kts
2026-04-26 14:32 10.75680 118.84172 38103 ft 342 kts
2026-04-26 14:32 10.78046 118.84339 38623 ft 340 kts
2026-04-26 14:33 10.80413 118.84505 39051 ft 339 kts
2026-04-26 14:33 10.82764 118.84669 39513 ft 338 kts
2026-04-26 14:33 10.85103 118.84835 39972 ft 336 kts
2026-04-26 14:33 10.87435 118.84999 40441 ft 334 kts
2026-04-26 14:34 10.89756 118.85160 40813 ft 336 kts
2026-04-26 14:34 10.92132 118.85327 40891 ft 348 kts
2026-04-26 14:34 10.94588 118.85498 40904 ft 360 kts
2026-04-26 14:34 10.97137 118.85678 40909 ft 372 kts
2026-04-26 14:35 10.99759 118.85864 40915 ft 383 kts
2026-04-26 14:35 11.05219 118.86247 40907 ft 402 kts
2026-04-26 14:36 11.10879 118.86645 40916 ft 417 kts
2026-04-26 14:36 11.16762 118.87060 40910 ft 429 kts
2026-04-26 14:37 11.22790 118.87485 40911 ft 439 kts
2026-04-26 14:37 11.28942 118.87917 40913 ft 446 kts
2026-04-26 14:38 11.35173 118.88357 40910 ft 451 kts
2026-04-26 14:38 11.41478 118.88802 40911 ft 456 kts
2026-04-26 14:39 11.47743 118.89245 40911 ft 447 kts
2026-04-26 14:39 11.53926 118.89679 40910 ft 443 kts
2026-04-26 14:40 11.60063 118.90113 40908 ft 441 kts
2026-04-26 14:40 11.66180 118.90546 40907 ft 439 kts
2026-04-26 14:41 11.72236 118.90974 40903 ft 439 kts
2026-04-26 14:41 11.78363 118.91406 40900 ft 438 kts
2026-04-26 14:42 11.84406 118.91833 40903 ft 437 kts
2026-04-26 14:42 11.90486 118.92264 40905 ft 437 kts
2026-04-26 14:43 11.96548 118.92693 40905 ft 436 kts
2026-04-26 14:43 12.02609 118.93122 40909 ft 436 kts
2026-04-26 14:44 12.08660 118.93551 40902 ft 436 kts
2026-04-26 14:44 12.14674 118.93978 40905 ft 435 kts
2026-04-26 14:45 12.20717 118.94406 40909 ft 435 kts
2026-04-26 14:45 12.26756 118.94834 40909 ft 435 kts
2026-04-26 14:46 12.32803 118.95263 40910 ft 435 kts
2026-04-26 14:46 12.38842 118.95693 40911 ft 435 kts
2026-04-26 14:47 12.44874 118.96121 40911 ft 434 kts
2026-04-26 14:47 12.50911 118.96549 40912 ft 434 kts
2026-04-26 14:48 12.56903 118.96976 40913 ft 434 kts
2026-04-26 14:48 12.62936 118.97405 40914 ft 434 kts
2026-04-26 14:49 12.68960 118.97834 40918 ft 434 kts
2026-04-26 14:49 12.74992 118.98263 40917 ft 434 kts
2026-04-26 14:50 12.81025 118.98693 40916 ft 434 kts
2026-04-26 14:50 12.86037 118.99050 40917 ft 434 kts
2026-04-26 14:51 12.92059 118.99481 40918 ft 434 kts
2026-04-26 14:51 12.97984 119.00777 40907 ft 438 kts 18°
2026-04-26 14:52 13.03376 119.03638 40909 ft 442 kts 33°
2026-04-26 14:52 13.07903 119.07933 40907 ft 445 kts 49°
2026-04-26 14:53 13.11713 119.12956 40767 ft 445 kts 51°
2026-04-26 14:53 13.13598 119.15432 40323 ft 434 kts 51°
2026-04-26 14:53 13.15436 119.17858 39858 ft 426 kts 51°
2026-04-26 14:53 13.17256 119.20263 39390 ft 430 kts 51°
2026-04-26 14:54 13.19112 119.22713 38915 ft 438 kts 51°
2026-04-26 14:54 13.20978 119.25176 38405 ft 446 kts 51°
2026-04-26 14:54 13.22892 119.27703 37887 ft 450 kts 51°
2026-04-26 14:54 13.24806 119.30236 37395 ft 446 kts 51°
2026-04-26 14:55 13.26706 119.32748 36912 ft 442 kts 51°
2026-04-26 14:55 13.28590 119.35237 36432 ft 439 kts 51°
2026-04-26 14:55 13.30458 119.37708 35953 ft 437 kts 51°
2026-04-26 14:55 13.32320 119.40170 35476 ft 435 kts 51°
2026-04-26 14:56 13.34173 119.42624 34997 ft 434 kts 51°
2026-04-26 14:56 13.36020 119.45068 34525 ft 433 kts 51°
2026-04-26 14:56 13.37870 119.47517 34050 ft 433 kts 51°
2026-04-26 14:56 13.39710 119.49954 33543 ft 432 kts 52°
2026-04-26 14:57 13.41527 119.52359 33068 ft 433 kts 52°
2026-04-26 14:57 13.43416 119.54865 32579 ft 453 kts 52°
2026-04-26 14:57 13.45393 119.57482 32056 ft 472 kts 52°
2026-04-26 14:57 13.47436 119.60195 31540 ft 487 kts 52°
2026-04-26 14:58 13.49528 119.62967 30975 ft 485 kts 52°
2026-04-26 14:58 13.51559 119.65664 30456 ft 470 kts 52°
2026-04-26 14:58 13.53567 119.68328 29935 ft 459 kts 52°
2026-04-26 14:58 13.55481 119.70868 29409 ft 449 kts 52°
2026-04-26 14:59 13.57377 119.73389 28920 ft 448 kts 52°
2026-04-26 14:59 13.59307 119.75950 28422 ft 458 kts 52°
2026-04-26 14:59 13.61269 119.78559 27909 ft 466 kts 52°
2026-04-26 14:59 13.62616 119.80347 27517 ft 469 kts 52°
2026-04-26 15:00 13.65294 119.83911 26803 ft 477 kts 51°
2026-04-26 15:00 13.67305 119.86584 26227 ft 465 kts 51°
2026-04-26 15:00 13.69262 119.89189 25519 ft 453 kts 51°
2026-04-26 15:00 13.71164 119.91720 24875 ft 442 kts 51°
2026-04-26 15:01 13.73021 119.94191 24283 ft 435 kts 51°
2026-04-26 15:01 13.74874 119.96658 23788 ft 433 kts 51°
2026-04-26 15:01 13.76713 119.99107 23281 ft 431 kts 51°
2026-04-26 15:01 13.78515 120.01510 22776 ft 428 kts 51°
2026-04-26 15:02 13.80327 120.03923 22283 ft 425 kts 51°
2026-04-26 15:02 13.82135 120.06334 21796 ft 423 kts 51°
2026-04-26 15:02 13.83926 120.08715 21324 ft 420 kts 50°
2026-04-26 15:02 13.86020 120.10782 20842 ft 417 kts 33°
2026-04-26 15:03 13.88573 120.12174 20399 ft 413 kts 24°
2026-04-26 15:03 13.91199 120.13369 19947 ft 412 kts 21°
2026-04-26 15:03 13.93845 120.14492 19498 ft 411 kts 21°
2026-04-26 15:03 13.96467 120.15659 19068 ft 410 kts 23°
2026-04-26 15:04 13.99068 120.16860 18627 ft 410 kts 23°
2026-04-26 15:04 14.01677 120.18047 18196 ft 409 kts 22°
2026-04-26 15:04 14.04189 120.19171 17720 ft 378 kts 22°
2026-04-26 15:04 14.06487 120.20203 17242 ft 343 kts 23°
2026-04-26 15:05 14.08590 120.21154 16785 ft 317 kts 23°
2026-04-26 15:05 14.09937 120.21762 16474 ft 312 kts 23°
2026-04-26 15:05 14.12636 120.22978 15880 ft 326 kts 23°
2026-04-26 15:05 14.14708 120.23914 15452 ft 325 kts 23°
2026-04-26 15:06 14.16779 120.24848 15034 ft 324 kts 24°
2026-04-26 15:06 14.18835 120.25780 14622 ft 322 kts 24°
2026-04-26 15:06 14.20872 120.26697 14220 ft 316 kts 24°
2026-04-26 15:06 14.22867 120.27601 13828 ft 311 kts 24°
2026-04-26 15:07 14.26789 120.29372 12970 ft 304 kts 25°
2026-04-26 15:07 14.28723 120.30247 12542 ft 302 kts 25°
2026-04-26 15:07 14.30640 120.31113 12122 ft 300 kts 25°
2026-04-26 15:08 14.32547 120.31976 11712 ft 298 kts 25°
2026-04-26 15:08 14.34445 120.32834 11313 ft 297 kts 25°
2026-04-26 15:08 14.36329 120.33686 11034 ft 292 kts 25°
2026-04-26 15:08 14.38142 120.34505 10982 ft 286 kts 25°
2026-04-26 15:09 14.39966 120.35331 10981 ft 286 kts 25°
2026-04-26 15:09 14.41801 120.36164 10980 ft 290 kts 26°
2026-04-26 15:09 14.43644 120.37114 10974 ft 302 kts 37°
2026-04-26 15:09 14.45000 120.38748 10969 ft 295 kts 59°
2026-04-26 15:10 14.46046 120.40519 10803 ft 286 kts 61°
2026-04-26 15:10 14.46698 120.41732 10572 ft 285 kts 63°
2026-04-26 15:10 14.47970 120.44095 10112 ft 284 kts 61°
2026-04-26 15:10 14.48963 120.45856 9766 ft 283 kts 60°
2026-04-26 15:11 14.49955 120.47614 9395 ft 283 kts 60°
2026-04-26 15:11 14.50936 120.49371 9021 ft 283 kts 61°
2026-04-26 15:11 14.51915 120.51129 8648 ft 282 kts 62°
2026-04-26 15:11 14.52896 120.52883 8280 ft 281 kts 61°
2026-04-26 15:12 14.53862 120.54613 7924 ft 277 kts 61°
2026-04-26 15:12 14.54810 120.56313 7564 ft 267 kts 61°
2026-04-26 15:12 14.55720 120.57943 7208 ft 258 kts 62°
2026-04-26 15:12 14.56586 120.59543 6853 ft 252 kts 62°
2026-04-26 15:13 14.57487 120.61075 6506 ft 248 kts 60°
2026-04-26 15:13 14.58346 120.62617 6143 ft 249 kts 62°
2026-04-26 15:13 14.59163 120.64195 5776 ft 251 kts 61°
2026-04-26 15:13 14.60053 120.65747 5412 ft 251 kts 68°
2026-04-26 15:14 14.60243 120.67515 5096 ft 247 kts 95°
2026-04-26 15:14 14.59702 120.69155 5006 ft 242 kts 122°
2026-04-26 15:14 14.58539 120.70375 4987 ft 239 kts 146°
2026-04-26 15:14 14.57104 120.71218 4986 ft 235 kts 148°
2026-04-26 15:15 14.55717 120.72032 4985 ft 232 kts 149°
2026-04-26 15:15 14.54266 120.72869 4987 ft 246 kts 150°
2026-04-26 15:15 14.52554 120.73228 4977 ft 263 kts 182°
2026-04-26 15:15 14.50807 120.72638 4977 ft 265 kts 212°
2026-04-26 15:16 14.49537 120.71324 4976 ft 253 kts 220°
2026-04-26 15:16 14.47977 120.70713 4971 ft 238 kts 177°
2026-04-26 15:16 14.46511 120.71153 4977 ft 229 kts 151°
2026-04-26 15:16 14.45104 120.71928 4984 ft 230 kts 148°
2026-04-26 15:17 14.43720 120.72753 4989 ft 230 kts 147°
2026-04-26 15:17 14.42800 120.73304 4992 ft 230 kts 147°
2026-04-26 15:17 14.40941 120.74425 4994 ft 233 kts 147°
2026-04-26 15:17 14.39532 120.75273 4992 ft 235 kts 147°
2026-04-26 15:18 14.38117 120.76119 4998 ft 236 kts 147°
2026-04-26 15:18 14.36718 120.77009 4990 ft 235 kts 139°
2026-04-26 15:18 14.35910 120.78418 4978 ft 231 kts 99°
2026-04-26 15:18 14.36136 120.80024 4700 ft 230 kts 64°
2026-04-26 15:19 14.37284 120.81112 4340 ft 223 kts 25°
2026-04-26 15:19 14.38797 120.81199 3989 ft 219 kts 352°
2026-04-26 15:19 14.40170 120.81391 3836 ft 195 kts 37°
2026-04-26 15:19 14.40856 120.82487 3677 ft 181 kts 83°
2026-04-26 15:20 14.40490 120.83678 3495 ft 180 kts 128°
2026-04-26 15:20 14.39957 120.84785 3378 ft 171 kts 94°
2026-04-26 15:20 14.40326 120.85928 3279 ft 176 kts 53°
2026-04-26 15:20 14.41236 120.86791 3177 ft 181 kts 41°
2026-04-26 15:21 14.42303 120.87604 3118 ft 198 kts 42°
2026-04-26 15:21 14.43329 120.88603 3095 ft 207 kts 52°
2026-04-26 15:21 14.44175 120.89777 2890 ft 201 kts 58°
2026-04-26 15:21 14.44912 120.90953 2683 ft 190 kts 60°
2026-04-26 15:22 14.45551 120.92101 2443 ft 179 kts 63°
2026-04-26 15:22 14.46098 120.93211 2100 ft 163 kts 66°
2026-04-26 15:22 14.46561 120.94197 1736 ft 155 kts 64°
2026-04-26 15:22 14.47066 120.95108 1424 ft 138 kts 61°
2026-04-26 15:23 14.47523 120.95932 1166 ft 127 kts 62°
2026-04-26 15:23 14.47971 120.96749 844 ft 132 kts 60°
2026-04-26 15:23 14.48423 120.97538 646 ft 122 kts 60°
2026-04-26 15:23 14.48821 120.98283 495 ft 119 kts 63°
2026-04-26 15:24 14.49245 120.99041 388 ft 125 kts 62°
2026-04-26 15:24 14.49683 120.99832 194 ft 128 kts 64°
2026-04-26 15:24 14.50117 121.00604 61 ft 115 kts 63°
2026-04-26 15:24 14.50436 121.01179 58 ft 69 kts 60°
2026-04-26 15:25 14.50643 121.01550 62 ft 56 kts 60°
2026-04-26 15:25 14.50761 121.01714 59 ft 36 kts 39°
2026-04-26 15:25 14.50909 121.01765 62 ft 11 kts 318°
2026-04-26 15:25 14.50963 121.01707 62 ft 11 kts 342°
2026-04-26 15:26 14.51009 121.01664 56 ft 11 kts 314°
2026-04-26 15:26 14.51075 121.01596 62 ft 16 kts 315°
2026-04-26 15:26 14.51163 121.01505 62 ft 19 kts 315°
2026-04-26 15:26 14.51209 121.01458 62 ft 0 kts 315°
2026-04-26 15:28 14.51240 121.01426 62 ft 13 kts 320°
2026-04-26 15:28 14.51311 121.01463 55 ft 20 kts 51°
2026-04-26 15:28 14.51407 121.01565 59 ft 17 kts 45°
2026-04-26 15:28 14.51488 121.01558 60 ft 14 kts 315°
2026-04-26 15:29 14.51562 121.01481 62 ft 18 kts 315°
2026-04-26 15:29 14.51627 121.01415 63 ft 22 kts 315°
2026-04-26 15:29 14.51920 121.01112 63 ft 26 kts 315°
2026-04-26 15:30 14.52128 121.00897 63 ft 27 kts 315°
2026-04-26 15:30 14.52260 121.00762 56 ft 23 kts 315°
2026-04-26 15:30 14.52373 121.00645 63 ft 24 kts 315°
2026-04-26 15:31 14.52492 121.00522 63 ft 22 kts 315°
2026-04-26 15:31 14.52602 121.00274 63 ft 13 kts 278°
2026-04-26 15:31 14.52654 121.00280 56 ft 20 kts 15°
2026-04-26 15:32 14.52734 121.00301 63 ft 0 kts 50°